Bellingham, WA

4:47 AM PDT on April 27, 2017 (GMT -0700)
Bellingham International

Weather History for KBLI - March, 2013

Change the Weather History Date:

Thursday, March 28, 2013

  Actual Average Record
Temperature  
Mean Temperature 49 °F 46 °F  
Max Temperature 60 °F 54 °F 72 °F (1994)
Min Temperature 37 °F 38 °F 24 °F (1954)
Degree Days  
Heating Degree Days 16 19  
Month to date heating degree days 554 586  
Cooling Degree Days 0 0  
Month to date cooling degree days 0 0  
Year to date cooling degree days 0 0  
Moisture  
Dew Point 41 °F    
Average Humidity 74    
Maximum Humidity 96    
Minimum Humidity 51    
Precipitation  
Precipitation 0.00 in 0.11 in 0.47 in (1971)
Month to date precipitation 3.16 2.90  
Year to date precipitation 6.48 10.59  
Sea Level Pressure  
Sea Level Pressure 30.09 in    
Wind  
Wind Speed 3 mph (South)    
Max Wind Speed 10 mph    
Max Gust Speed 14 mph    
Visibility 10 miles    
Events      
T = Trace of Precipitation, MM = Missing Value Source: NWS Daily Summary

Daily Weather History Graph

Daily Weather History Graph

Search for Another Location

Airport or City:

Trip Planner

Search our weather history database for the weather conditions in past years. The results will help you decide how hot, cold, wet, or windy it might be!

Date:

Astronomy

Mar. 28, 2013 Rise Set
Actual Time 6:55 AM PDT 7:35 PM PDT
Civil Twilight 6:23 AM PDT 8:07 PM PDT
Nautical Twilight 5:45 AM PDT 8:45 PM PDT
Astronomical Twilight 5:06 AM PDT 9:25 PM PDT
Moon 9:47 PM PDT (3/28) 7:16 AM PDT (3/28)
Length of Visible Light 13h 43m
Length of Day
12h 40m
Full, 98% of the Moon is Illuminated
Mar 28
Full
Apr 2
Last Quarter
Apr 10
New
Apr 18
First Quarter
Apr 25
Full

Hourly Weather History & Observations

Time (PDT) Temp. Windchill Dew Point Humidity Pressure Visibility Wind Dir Wind Speed Gust Speed Precip Events Conditions
12:53 AM 48.0 °F - 41.0 °F 77% 30.02 in 10.0 mi Calm Calm - N/A   Overcast
1:53 AM 46.0 °F 44.8 °F 39.9 °F 79% 30.03 in 10.0 mi North 3.5 mph - N/A   Overcast
2:53 AM 45.0 °F - 41.0 °F 86% 30.03 in 10.0 mi Calm Calm - N/A   Scattered Clouds
3:53 AM 41.0 °F - 37.9 °F 89% 30.04 in 8.0 mi Calm Calm - N/A   Clear
4:53 AM 39.0 °F - 36.0 °F 89% 30.05 in 10.0 mi Calm Calm - N/A   Clear
5:53 AM 39.0 °F - 37.0 °F 93% 30.05 in 6.0 mi Calm Calm - N/A   Clear
6:53 AM 37.9 °F - 36.0 °F 93% 30.07 in 7.0 mi Calm Calm - N/A   Clear
7:53 AM 41.0 °F - 39.9 °F 96% 30.08 in 8.0 mi Calm Calm - N/A   Scattered Clouds
8:53 AM 46.0 °F - 42.1 °F 86% 30.10 in 10.0 mi Calm Calm - N/A   Overcast
9:53 AM 48.9 °F - 43.0 °F 80% 30.11 in 10.0 mi South 5.8 mph - N/A   Clear
10:53 AM 50.0 °F - 42.1 °F 74% 30.12 in 10.0 mi SSE 4.6 mph - N/A   Mostly Cloudy
11:53 AM 51.1 °F - 42.1 °F 71% 30.12 in 10.0 mi South 6.9 mph - N/A   Mostly Cloudy
12:53 PM 54.0 °F - 43.0 °F 66% 30.12 in 10.0 mi SW 8.1 mph - N/A   Mostly Cloudy
1:53 PM 55.0 °F - 44.1 °F 67% 30.11 in 10.0 mi SSE 8.1 mph - N/A   Overcast
2:53 PM 59.0 °F - 45.0 °F 60% 30.10 in 10.0 mi SSE 9.2 mph - N/A   Clear
3:53 PM 59.0 °F - 42.1 °F 53% 30.09 in 10.0 mi West 4.6 mph - N/A   Clear
4:53 PM 59.0 °F - 42.1 °F 53% 30.10 in 10.0 mi Calm Calm - N/A   Clear
5:53 PM 57.9 °F - 41.0 °F 53% 30.10 in 10.0 mi SSW 3.5 mph - N/A   Clear
6:53 PM 57.0 °F - 39.9 °F 53% 30.10 in 10.0 mi WSW 3.5 mph - N/A   Mostly Cloudy
7:53 PM 55.0 °F - 41.0 °F 59% 30.11 in 10.0 mi Calm Calm - N/A   Mostly Cloudy
8:53 PM 48.0 °F - 42.1 °F 80% 30.12 in 10.0 mi Calm Calm - N/A   Clear
9:53 PM 46.9 °F - 41.0 °F 80% 30.14 in 10.0 mi Calm Calm - N/A   Clear
10:53 PM 45.0 °F - 41.0 °F 86% 30.15 in 10.0 mi Calm Calm - N/A   Partly Cloudy
11:53 PM 43.0 °F 41.3 °F 41.0 °F 93% 30.17 in 10.0 mi SSE 3.5 mph - N/A   Partly Cloudy